Time,TemperatureF,DewpointF,PressureIn,WindDirection,WindDirectionDegrees,WindSpeedMPH,WindSpeedGustMPH,Humidity,HourlyPrecipIn,Conditions,Clouds,dailyrainin,SoftwareType,DateUTC
2013-05-15 00:00:00,47.6,16.1,30.12,NW,322,0.0,0.0,28,0.00,CLR,,0.00,WeatherDisplay:10.37,2013-05-15 07:00:00,
2013-05-15 00:05:00,47.4,15.9,30.12,NW,322,0.0,0.0,28,0.00,CLR,,0.00,WeatherDisplay:10.37,2013-05-15 07:05:00,
2013-05-15 00:10:00,47.5,16.8,30.12,NW,322,0.0,4.0,29,0.00,CLR,,0.00,WeatherDisplay:10.37,2013-05-15 07:10:00,
2013-05-15 00:20:00,48.6,17.8,30.12,NW,306,3.0,4.0,29,0.00,CLR,,0.00,WeatherDisplay:10.37,2013-05-15 07:20:00,
2013-05-15 00:25:00,48.9,18.0,30.12,NW,306,3.0,4.0,29,0.00,CLR,,0.00,WeatherDisplay:10.37,2013-05-15 07:25:00,
2013-05-15 00:30:00,49.3,18.3,30.12,NW,317,3.0,6.0,29,0.00,CLR,,0.00,WeatherDisplay:10.37,2013-05-15 07:30:00,
2013-05-15 00:35:00,49.5,18.5,30.12,NW,318,3.0,5.0,29,0.00,CLR,,0.00,WeatherDisplay:10.37,2013-05-15 07:35:00,
2013-05-15 00:40:00,49.6,18.6,30.12,NW,317,3.0,6.0,29,0.00,CLR,,0.00,WeatherDisplay:10.37,2013-05-15 07:40:00,
2013-05-15 00:45:00,49.6,18.6,30.12,NW,317,3.0,6.0,29,0.00,CLR,,0.00,WeatherDisplay:10.37,2013-05-15 07:45:00,
2013-05-15 00:50:00,49.6,18.6,30.12,NW,317,3.0,4.0,29,0.00,CLR,,0.00,WeatherDisplay:10.37,2013-05-15 07:50:00,
2013-05-15 01:00:00,49.3,18.3,30.12,NW,317,0.0,0.0,29,0.00,CLR,,0.00,WeatherDisplay:10.37,2013-05-15 08:00:00,
2013-05-15 01:05:00,48.9,18.0,30.12,NW,317,0.0,0.0,29,0.00,CLR,,0.00,WeatherDisplay:10.37,2013-05-15 08:05:00,
2013-05-15 01:10:00,48.7,17.9,30.12,NW,317,0.0,0.0,29,0.00,CLR,,0.00,WeatherDisplay:10.37,2013-05-15 08:10:00,
2013-05-15 01:20:00,48.6,17.7,30.12,NW,317,0.0,0.0,29,0.00,CLR,,0.00,WeatherDisplay:10.37,2013-05-15 08:20:00,
2013-05-15 01:25:00,48.6,18.5,30.12,WNW,282,1.0,4.0,30,0.00,CLR,,0.00,WeatherDisplay:10.37,2013-05-15 08:25:00,
2013-05-15 01:30:00,48.7,17.9,30.12,West,266,0.0,0.0,29,0.00,CLR,,0.00,WeatherDisplay:10.37,2013-05-15 08:30:00,
2013-05-15 01:35:00,48.9,18.0,30.12,West,279,0.0,0.0,29,0.00,CLR,,0.00,WeatherDisplay:10.37,2013-05-15 08:35:00,
2013-05-15 01:40:00,49.1,18.1,30.12,WNW,287,1.0,4.0,29,0.00,CLR,,0.00,WeatherDisplay:10.37,2013-05-15 08:40:00,
2013-05-15 01:50:00,49.1,19.0,30.12,WSW,252,1.0,6.0,30,0.00,CLR,,0.00,WeatherDisplay:10.37,2013-05-15 08:50:00,
2013-05-15 01:55:00,49.1,19.0,30.12,WSW,241,0.0,4.0,30,0.00,CLR,,0.00,WeatherDisplay:10.37,2013-05-15 08:55:00,
2013-05-15 02:00:00,49.1,19.0,30.12,WSW,249,0.0,4.0,30,0.00,CLR,,0.00,WeatherDisplay:10.37,2013-05-15 09:00:00,
2013-05-15 02:05:00,49.1,19.0,30.12,West,281,0.0,3.0,30,0.00,CLR,,0.00,WeatherDisplay:10.37,2013-05-15 09:05:00,
2013-05-15 02:10:00,49.0,18.8,30.12,WSW,253,0.0,3.0,30,0.00,CLR,,0.00,WeatherDisplay:10.37,2013-05-15 09:10:00,
2013-05-15 02:15:00,48.5,18.5,30.09,SW,220,0.0,0.0,30,0.00,CLR,,0.00,WeatherDisplay:10.37,2013-05-15 09:15:00,
2013-05-15 02:20:00,48.2,18.9,30.09,WSW,254,0.0,3.0,31,0.00,CLR,,0.00,WeatherDisplay:10.37,2013-05-15 09:20:00,
2013-05-15 02:30:00,47.8,19.4,30.12,West,264,0.0,2.0,32,0.00,CLR,,0.00,WeatherDisplay:10.37,2013-05-15 09:30:00,
2013-05-15 02:40:00,47.4,19.7,30.12,West,260,0.0,0.0,33,0.00,CLR,,0.00,WeatherDisplay:10.37,2013-05-15 09:40:00,
2013-05-15 02:50:00,47.3,21.0,30.12,SSW,211,0.0,0.0,35,0.00,CLR,,0.00,WeatherDisplay:10.37,2013-05-15 09:50:00,
2013-05-15 03:00:00,47.3,22.3,30.12,SSW,210,0.0,0.0,37,0.00,CLR,,0.00,WeatherDisplay:10.37,2013-05-15 10:00:00,
2013-05-15 03:05:00,47.5,22.5,30.12,SW,229,0.0,4.0,37,0.00,CLR,,0.00,WeatherDisplay:10.37,2013-05-15 10:05:00,
2013-05-15 03:10:00,47.6,22.6,30.12,WSW,238,0.0,0.0,37,0.00,CLR,,0.00,WeatherDisplay:10.37,2013-05-15 10:10:00,
2013-05-15 03:15:00,47.9,22.9,30.12,WSW,238,0.0,0.0,37,0.00,CLR,,0.00,WeatherDisplay:10.37,2013-05-15 10:15:00,
2013-05-15 03:20:00,48.0,23.0,30.12,WSW,239,0.0,0.0,37,0.00,CLR,,0.00,WeatherDisplay:10.37,2013-05-15 10:20:00,
2013-05-15 03:30:00,48.4,23.3,30.12,SW,228,0.0,4.0,37,0.00,CLR,,0.00,WeatherDisplay:10.37,2013-05-15 10:30:00,
2013-05-15 03:40:00,48.7,23.6,30.12,WSW,242,0.0,0.0,37,0.00,CLR,,0.00,WeatherDisplay:10.37,2013-05-15 10:40:00,
2013-05-15 03:45:00,48.9,23.8,30.09,WSW,242,0.0,0.0,37,0.00,CLR,,0.00,WeatherDisplay:10.37,2013-05-15 10:45:00,
2013-05-15 03:50:00,49.1,23.9,30.09,WSW,242,0.0,0.0,37,0.00,CLR,,0.00,WeatherDisplay:10.37,2013-05-15 10:50:00,
2013-05-15 04:00:00,49.5,24.2,30.12,West,262,0.0,0.0,37,0.00,CLR,,0.00,WeatherDisplay:10.37,2013-05-15 11:00:00,
2013-05-15 04:05:00,49.5,24.2,30.12,WNW,284,0.0,0.0,37,0.00,CLR,,0.00,WeatherDisplay:10.37,2013-05-15 11:05:00,
2013-05-15 04:10:00,49.6,24.4,30.12,WNW,287,0.0,0.0,37,0.00,CLR,,0.00,WeatherDisplay:10.37,2013-05-15 11:10:00,
2013-05-15 04:15:00,49.5,24.2,30.09,WNW,287,0.0,0.0,37,0.00,CLR,,0.00,WeatherDisplay:10.37,2013-05-15 11:15:00,
2013-05-15 04:20:00,49.1,23.9,30.09,WNW,287,0.0,0.0,37,0.00,CLR,,0.00,WeatherDisplay:10.37,2013-05-15 11:20:00,
2013-05-15 04:25:00,48.9,23.8,30.09,NW,310,0.0,4.0,37,0.00,CLR,,0.00,WeatherDisplay:10.37,2013-05-15 11:25:00,
2013-05-15 04:35:00,49.3,24.1,30.12,NNW,347,0.0,3.0,37,0.00,CLR,,0.00,WeatherDisplay:10.37,2013-05-15 11:35:00,
2013-05-15 04:40:00,49.3,24.1,30.12,NNW,348,0.0,0.0,37,0.00,CLR,,0.00,WeatherDisplay:10.37,2013-05-15 11:40:00,
2013-05-15 04:50:00,49.1,23.9,30.12,NNW,345,0.0,0.0,37,0.00,CLR,,0.00,WeatherDisplay:10.37,2013-05-15 11:50:00,
2013-05-15 04:55:00,49.1,23.9,30.12,NNW,344,0.0,0.0,37,0.00,CLR,,0.00,WeatherDisplay:10.37,2013-05-15 11:55:00,
2013-05-15 05:00:00,49.3,24.7,30.09,NNW,343,0.0,0.0,38,0.00,CLR,,0.00,WeatherDisplay:10.37,2013-05-15 12:00:00,
2013-05-15 05:05:00,49.3,24.7,30.09,NNW,342,0.0,0.0,38,0.00,CLR,,0.00,WeatherDisplay:10.37,2013-05-15 12:05:00,
2013-05-15 05:10:00,48.9,24.4,30.09,NNW,342,0.0,0.0,38,0.00,CLR,,0.00,WeatherDisplay:10.37,2013-05-15 12:10:00,
2013-05-15 05:20:00,48.7,24.2,30.09,NNW,340,0.0,0.0,38,0.00,CLR,,0.00,WeatherDisplay:10.37,2013-05-15 12:20:00,
2013-05-15 05:30:00,48.4,24.5,30.09,NNW,328,0.0,0.0,39,0.00,CLR,,0.00,WeatherDisplay:10.37,2013-05-15 12:30:00,
2013-05-15 05:40:00,48.2,24.4,30.09,NNW,327,0.0,0.0,39,0.00,CLR,,0.00,WeatherDisplay:10.37,2013-05-15 12:40:00,
2013-05-15 05:45:00,48.0,24.8,30.09,NNW,327,0.0,0.0,40,0.00,CLR,,0.00,WeatherDisplay:10.37,2013-05-15 12:45:00,
2013-05-15 05:50:00,48.0,25.4,30.09,NNW,327,0.0,0.0,41,0.00,CLR,,0.00,WeatherDisplay:10.37,2013-05-15 12:50:00,
2013-05-15 05:55:00,48.0,25.4,30.09,NNW,327,0.0,0.0,41,0.00,CLR,,0.00,WeatherDisplay:10.37,2013-05-15 12:55:00,
2013-05-15 06:00:00,48.2,25.6,30.09,NNW,327,0.0,0.0,41,0.00,CLR,,0.00,WeatherDisplay:10.37,2013-05-15 13:00:00,
2013-05-15 06:05:00,48.2,25.6,30.09,NNW,327,0.0,0.0,41,0.00,CLR,,0.00,WeatherDisplay:10.37,2013-05-15 13:05:00,
2013-05-15 06:10:00,48.2,25.6,30.09,NNW,327,0.0,0.0,41,0.00,CLR,,0.00,WeatherDisplay:10.37,2013-05-15 13:10:00,
2013-05-15 06:30:00,48.7,26.6,30.12,NW,311,0.0,0.0,42,0.00,CLR,,0.00,WeatherDisplay:10.37,2013-05-15 13:30:00,
2013-05-15 06:35:00,49.1,27.0,30.12,NW,307,0.0,0.0,42,0.00,CLR,,0.00,WeatherDisplay:10.37,2013-05-15 13:35:00,
2013-05-15 06:40:00,49.6,27.5,30.12,WNW,303,0.0,0.0,42,0.00,CLR,,0.00,WeatherDisplay:10.37,2013-05-15 13:40:00,
2013-05-15 06:45:00,50.0,27.2,30.12,NW,304,0.0,0.0,41,0.00,CLR,,0.00,WeatherDisplay:10.37,2013-05-15 13:45:00,
2013-05-15 06:50:00,50.2,27.4,30.12,NW,310,1.0,3.0,41,0.00,CLR,,0.00,WeatherDisplay:10.37,2013-05-15 13:50:00,
2013-05-15 07:00:00,51.1,28.2,30.12,NW,326,0.0,0.0,41,0.00,CLR,,0.00,WeatherDisplay:10.37,2013-05-15 14:00:00,
2013-05-15 07:05:00,51.6,28.1,30.12,NNW,332,0.0,0.0,40,0.00,CLR,,0.00,WeatherDisplay:10.37,2013-05-15 14:05:00,
2013-05-15 07:10:00,52.2,27.9,30.12,NNW,340,0.0,0.0,39,0.00,CLR,,0.00,WeatherDisplay:10.37,2013-05-15 14:10:00,
2013-05-15 07:20:00,52.8,28.5,30.12,NNW,334,0.0,0.0,39,0.00,CLR,,0.00,WeatherDisplay:10.37,2013-05-15 14:20:00,
2013-05-15 07:40:00,54.9,29.7,30.12,WNW,288,0.0,4.0,38,0.00,CLR,,0.00,WeatherDisplay:10.37,2013-05-15 14:40:00,
2013-05-15 07:50:00,56.1,29.5,30.12,West,280,3.0,6.0,36,0.00,CLR,,0.00,WeatherDisplay:10.37,2013-05-15 14:50:00,
2013-05-15 07:55:00,56.7,30.0,30.12,West,277,5.0,6.0,36,0.00,CLR,,0.00,WeatherDisplay:10.37,2013-05-15 14:55:00,
2013-05-15 08:05:00,58.1,30.6,30.12,West,274,6.0,8.0,35,0.00,CLR,,0.00,WeatherDisplay:10.37,2013-05-15 15:05:00,
2013-05-15 08:10:00,58.5,31.0,30.12,WNW,288,5.0,8.0,35,0.00,CLR,,0.00,WeatherDisplay:10.37,2013-05-15 15:10:00,
2013-05-15 08:20:00,59.7,31.3,30.12,West,281,5.0,8.0,34,0.00,CLR,,0.00,WeatherDisplay:10.37,2013-05-15 15:20:00,
2013-05-15 08:30:00,60.8,29.9,30.12,West,276,5.0,8.0,31,0.00,CLR,,0.00,WeatherDisplay:10.37,2013-05-15 15:30:00,
2013-05-15 08:40:00,61.9,30.1,30.12,WNW,288,5.0,8.0,30,0.00,CLR,,0.00,WeatherDisplay:10.37,2013-05-15 15:40:00,
2013-05-15 08:50:00,63.1,29.5,30.12,West,271,5.0,10.0,28,0.00,CLR,,0.00,WeatherDisplay:10.37,2013-05-15 15:50:00,
2013-05-15 09:00:00,64.1,30.3,30.12,WSW,252,3.0,8.0,28,0.00,CLR,,0.00,WeatherDisplay:10.37,2013-05-15 16:00:00,
2013-05-15 09:10:00,65.3,30.4,30.12,WNW,299,5.0,6.0,27,0.00,CLR,,0.00,WeatherDisplay:10.37,2013-05-15 16:10:00,
2013-05-15 09:20:00,66.2,30.3,30.12,West,267,5.0,10.0,26,0.00,CLR,,0.00,WeatherDisplay:10.37,2013-05-15 16:20:00,
2013-05-15 09:35:00,67.8,30.7,30.15,West,276,6.0,8.0,25,0.00,CLR,,0.00,WeatherDisplay:10.37,2013-05-15 16:35:00,
2013-05-15 09:40:00,68.0,30.8,30.15,West,277,5.0,8.0,25,0.00,CLR,,0.00,WeatherDisplay:10.37,2013-05-15 16:40:00,
2013-05-15 09:50:00,68.8,30.5,30.15,West,260,3.0,13.0,24,0.00,CLR,,0.00,WeatherDisplay:10.37,2013-05-15 16:50:00,
2013-05-15 09:55:00,69.4,31.0,30.15,WNW,296,3.0,6.0,24,0.00,CLR,,0.00,WeatherDisplay:10.37,2013-05-15 16:55:00,
2013-05-15 10:00:00,70.1,30.6,30.15,WNW,283,5.0,9.0,23,0.00,CLR,,0.00,WeatherDisplay:10.37,2013-05-15 17:00:00,
2013-05-15 10:05:00,70.4,30.8,30.15,West,264,6.0,8.0,23,0.00,CLR,,0.00,WeatherDisplay:10.37,2013-05-15 17:05:00,
2013-05-15 10:10:00,70.5,30.9,30.15,West,274,5.0,6.0,23,0.00,CLR,,0.00,WeatherDisplay:10.37,2013-05-15 17:10:00,
2013-05-15 10:20:00,70.3,30.8,30.15,West,273,5.0,8.0,23,0.00,CLR,,0.00,WeatherDisplay:10.37,2013-05-15 17:20:00,
2013-05-15 10:25:00,70.9,31.2,30.15,West,264,7.0,9.0,23,0.00,CLR,,0.00,WeatherDisplay:10.37,2013-05-15 17:25:00,
2013-05-15 10:35:00,71.3,31.6,30.15,WNW,284,5.0,6.0,23,0.00,CLR,,0.00,WeatherDisplay:10.37,2013-05-15 17:35:00,
2013-05-15 10:50:00,71.8,30.9,30.15,West,281,3.0,8.0,22,0.00,CLR,,0.00,WeatherDisplay:10.37,2013-05-15 17:50:00,
2013-05-15 11:00:00,72.4,31.4,30.15,WNW,301,2.0,6.0,22,0.00,CLR,,0.00,WeatherDisplay:10.37,2013-05-15 18:00:00,
2013-05-15 11:05:00,72.7,31.6,30.15,West,281,6.0,8.0,22,0.00,CLR,,0.00,WeatherDisplay:10.37,2013-05-15 18:05:00,
2013-05-15 11:15:00,72.1,31.2,30.15,West,280,5.0,8.0,22,0.00,CLR,,0.00,WeatherDisplay:10.37,2013-05-15 18:15:00,
2013-05-15 11:20:00,72.2,31.2,30.15,WNW,292,5.0,6.0,22,0.00,CLR,,0.00,WeatherDisplay:10.37,2013-05-15 18:20:00,
2013-05-15 11:30:00,72.0,31.0,30.15,WNW,287,3.0,10.0,22,0.00,CLR,,0.00,WeatherDisplay:10.37,2013-05-15 18:30:00,
2013-05-15 11:45:00,72.1,31.2,30.15,WNW,302,6.0,9.0,22,0.00,CLR,,0.00,WeatherDisplay:10.37,2013-05-15 18:45:00,
2013-05-15 11:50:00,72.5,31.5,30.15,NW,304,5.0,8.0,22,0.00,CLR,,0.00,WeatherDisplay:10.37,2013-05-15 18:50:00,
2013-05-15 12:00:00,72.9,31.8,30.15,West,270,3.0,6.0,22,0.00,CLR,,0.00,WeatherDisplay:10.37,2013-05-15 19:00:00,
2013-05-15 12:05:00,72.9,31.8,30.15,NW,311,5.0,6.0,22,0.00,CLR,,0.00,WeatherDisplay:10.37,2013-05-15 19:05:00,
2013-05-15 12:10:00,73.0,30.7,30.15,NW,306,6.0,10.0,21,0.00,CLR,,0.00,WeatherDisplay:10.37,2013-05-15 19:10:00,
2013-05-15 12:20:00,73.2,30.9,30.15,WNW,296,7.0,9.0,21,0.00,CLR,,0.00,WeatherDisplay:10.37,2013-05-15 19:20:00,
2013-05-15 12:25:00,73.0,30.8,30.15,WNW,289,6.0,10.0,21,0.00,CLR,,0.00,WeatherDisplay:10.37,2013-05-15 19:25:00,
2013-05-15 12:30:00,73.3,31.0,30.15,West,274,5.0,11.0,21,0.00,CLR,,0.00,WeatherDisplay:10.37,2013-05-15 19:30:00,
2013-05-15 12:40:00,73.9,31.5,30.15,West,281,5.0,9.0,21,0.00,CLR,,0.00,WeatherDisplay:10.37,2013-05-15 19:40:00,
2013-05-15 12:55:00,74.4,31.9,30.15,West,261,6.0,9.0,21,0.00,CLR,,0.00,WeatherDisplay:10.37,2013-05-15 19:55:00,
2013-05-15 13:00:00,74.6,32.1,30.12,West,267,7.0,11.0,21,0.00,CLR,,0.00,WeatherDisplay:10.37,2013-05-15 20:00:00,
2013-05-15 13:05:00,74.5,32.0,30.12,West,271,5.0,8.0,21,0.00,CLR,,0.00,WeatherDisplay:10.37,2013-05-15 20:05:00,
2013-05-15 13:10:00,74.5,32.0,30.12,WNW,282,6.0,13.0,21,0.00,CLR,,0.00,WeatherDisplay:10.37,2013-05-15 20:10:00,
2013-05-15 13:15:00,74.7,32.1,30.12,WNW,286,5.0,10.0,21,0.00,CLR,,0.00,WeatherDisplay:10.37,2013-05-15 20:15:00,
2013-05-15 13:20:00,74.8,32.2,30.12,West,278,5.0,10.0,21,0.00,CLR,,0.00,WeatherDisplay:10.37,2013-05-15 20:20:00,
2013-05-15 13:30:00,74.3,31.8,30.15,West,261,6.0,8.0,21,0.00,CLR,,0.00,WeatherDisplay:10.37,2013-05-15 20:30:00,
2013-05-15 13:50:00,75.0,32.4,30.12,WNW,291,5.0,8.0,21,0.00,CLR,,0.00,WeatherDisplay:10.37,2013-05-15 20:50:00,
2013-05-15 14:10:00,75.8,31.9,30.12,WNW,299,5.0,8.0,20,0.00,CLR,,0.00,WeatherDisplay:10.37,2013-05-15 21:10:00,
2013-05-15 14:20:00,75.4,31.6,30.12,WNW,303,3.0,9.0,20,0.00,CLR,,0.00,WeatherDisplay:10.37,2013-05-15 21:20:00,
2013-05-15 14:30:00,74.9,32.3,30.12,West,261,5.0,10.0,21,0.00,CLR,,0.00,WeatherDisplay:10.37,2013-05-15 21:30:00,
2013-05-15 14:40:00,73.8,31.4,30.12,West,259,5.0,11.0,21,0.00,CLR,,0.00,WeatherDisplay:10.37,2013-05-15 21:40:00,
2013-05-15 14:50:00,74.7,32.1,30.12,WSW,237,5.0,9.0,21,0.00,CLR,,0.00,WeatherDisplay:10.37,2013-05-15 21:50:00,
2013-05-15 15:00:00,73.6,32.4,30.12,SW,236,5.0,8.0,22,0.00,CLR,,0.00,WeatherDisplay:10.37,2013-05-15 22:00:00,
2013-05-15 15:10:00,72.5,34.7,30.12,WSW,241,0.0,6.0,25,0.00,CLR,,0.00,WeatherDisplay:10.37,2013-05-15 22:10:00,
2013-05-15 15:15:00,72.9,33.9,30.12,SW,235,3.0,8.0,24,0.00,CLR,,0.00,WeatherDisplay:10.37,2013-05-15 22:15:00,
2013-05-15 15:20:00,72.6,31.6,30.12,SW,228,3.0,8.0,22,0.00,CLR,,0.00,WeatherDisplay:10.37,2013-05-15 22:20:00,
2013-05-15 15:30:00,71.8,30.9,30.12,West,261,1.0,6.0,22,0.00,CLR,,0.00,WeatherDisplay:10.37,2013-05-15 22:30:00,
2013-05-15 15:45:00,70.9,30.1,30.12,WSW,258,3.0,8.0,22,0.00,CLR,,0.00,WeatherDisplay:10.37,2013-05-15 22:45:00,
2013-05-15 15:55:00,71.2,30.4,30.12,WSW,251,6.0,12.0,22,0.00,CLR,,0.00,WeatherDisplay:10.37,2013-05-15 22:55:00,
2013-05-15 16:00:00,71.1,30.3,30.12,WSW,250,6.0,9.0,22,0.00,CLR,,0.00,WeatherDisplay:10.37,2013-05-15 23:00:00,
2013-05-15 16:05:00,70.9,30.1,30.12,WSW,255,5.0,8.0,22,0.00,CLR,,0.00,WeatherDisplay:10.37,2013-05-15 23:05:00,
2013-05-15 16:15:00,71.1,30.3,30.12,West,281,6.0,6.0,22,0.00,CLR,,0.00,WeatherDisplay:10.37,2013-05-15 23:15:00,
2013-05-15 16:20:00,70.9,30.1,30.12,West,278,5.0,8.0,22,0.00,CLR,,0.00,WeatherDisplay:10.37,2013-05-15 23:20:00,
2013-05-15 16:30:00,70.7,31.1,30.12,West,265,3.0,8.0,23,0.00,CLR,,0.00,WeatherDisplay:10.37,2013-05-15 23:30:00,
2013-05-15 16:40:00,70.0,30.5,30.12,SSW,210,5.0,9.0,23,0.00,CLR,,0.00,WeatherDisplay:10.37,2013-05-15 23:40:00,
2013-05-15 16:50:00,69.4,30.0,30.12,SSW,206,3.0,6.0,23,0.00,CLR,,0.00,WeatherDisplay:10.37,2013-05-15 23:50:00,
2013-05-15 17:10:00,68.2,31.0,30.12,SSW,196,3.0,4.0,25,0.00,CLR,,0.00,WeatherDisplay:10.37,2013-05-16 00:10:00,
2013-05-15 17:15:00,67.8,30.7,30.12,SSW,194,2.0,4.0,25,0.00,CLR,,0.00,WeatherDisplay:10.37,2013-05-16 00:15:00,
2013-05-15 17:20:00,67.5,30.4,30.12,South,191,1.0,6.0,25,0.00,CLR,,0.00,WeatherDisplay:10.37,2013-05-16 00:20:00,
2013-05-15 17:30:00,66.6,30.6,30.12,SW,219,3.0,8.0,26,0.00,CLR,,0.00,WeatherDisplay:10.37,2013-05-16 00:30:00,
2013-05-15 17:40:00,66.2,30.3,30.12,SSW,198,2.0,6.0,26,0.00,CLR,,0.00,WeatherDisplay:10.37,2013-05-16 00:40:00,
2013-05-15 17:50:00,65.6,29.8,30.12,SW,230,3.0,10.0,26,0.00,CLR,,0.00,WeatherDisplay:10.37,2013-05-16 00:50:00,
2013-05-15 18:00:00,64.5,29.7,30.09,SW,224,5.0,9.0,27,0.00,CLR,,0.00,WeatherDisplay:10.37,2013-05-16 01:00:00,
2013-05-15 18:10:00,63.9,30.1,30.09,SW,232,3.0,8.0,28,0.00,CLR,,0.00,WeatherDisplay:10.37,2013-05-16 01:10:00,
2013-05-15 18:30:00,62.6,33.1,30.09,SW,214,1.0,4.0,33,0.00,CLR,,0.00,WeatherDisplay:10.37,2013-05-16 01:30:00,
2013-05-15 18:35:00,62.2,33.5,30.09,SSW,203,0.0,4.0,34,0.00,CLR,,0.00,WeatherDisplay:10.37,2013-05-16 01:35:00,
2013-05-15 18:40:00,61.7,33.0,30.09,South,184,0.0,0.0,34,0.00,CLR,,0.00,WeatherDisplay:10.37,2013-05-16 01:40:00,
2013-05-15 18:45:00,61.2,32.5,30.09,South,180,0.0,0.0,34,0.00,CLR,,0.00,WeatherDisplay:10.37,2013-05-16 01:45:00,
2013-05-15 19:00:00,59.5,32.5,30.09,South,191,0.0,0.0,36,0.00,CLR,,0.00,WeatherDisplay:10.37,2013-05-16 02:00:00,
2013-05-15 19:05:00,59.0,32.7,30.09,SSW,198,0.0,0.0,37,0.00,CLR,,0.00,WeatherDisplay:10.37,2013-05-16 02:05:00,
2013-05-15 19:10:00,58.8,33.2,30.09,SSW,213,0.0,0.0,38,0.00,CLR,,0.00,WeatherDisplay:10.37,2013-05-16 02:10:00,
2013-05-15 19:15:00,58.5,33.6,30.09,SW,234,0.0,0.0,39,0.00,CLR,,0.00,WeatherDisplay:10.37,2013-05-16 02:15:00,
2013-05-15 19:20:00,58.1,33.3,30.09,SW,224,0.0,0.0,39,0.00,CLR,,0.00,WeatherDisplay:10.37,2013-05-16 02:20:00,
2013-05-15 19:25:00,57.7,33.5,30.09,SSW,202,0.0,0.0,40,0.00,CLR,,0.00,WeatherDisplay:10.37,2013-05-16 02:25:00,
2013-05-15 19:35:00,56.6,34.3,30.09,South,188,0.0,0.0,43,0.00,CLR,,0.00,WeatherDisplay:10.37,2013-05-16 02:35:00,
2013-05-15 19:40:00,56.0,35.0,30.09,South,186,0.0,0.0,45,0.00,CLR,,0.00,WeatherDisplay:10.37,2013-05-16 02:40:00,
2013-05-15 19:50:00,55.2,34.8,30.09,South,184,0.0,0.0,46,0.00,CLR,,0.00,WeatherDisplay:10.37,2013-05-16 02:50:00,
2013-05-15 19:55:00,54.9,35.0,30.09,South,184,0.0,0.0,47,0.00,CLR,,0.00,WeatherDisplay:10.37,2013-05-16 02:55:00,
2013-05-15 20:00:00,54.5,34.7,30.09,South,184,0.0,0.0,47,0.00,CLR,,0.00,WeatherDisplay:10.37,2013-05-16 03:00:00,
2013-05-15 20:05:00,54.3,35.0,30.09,South,184,0.0,0.0,48,0.00,CLR,,0.00,WeatherDisplay:10.37,2013-05-16 03:05:00,
2013-05-15 20:10:00,54.1,34.9,30.09,SSE,153,0.0,0.0,48,0.00,CLR,,0.00,WeatherDisplay:10.37,2013-05-16 03:10:00,
2013-05-15 20:20:00,53.6,34.4,30.09,NE,49,0.0,0.0,48,0.00,CLR,,0.00,WeatherDisplay:10.37,2013-05-16 03:20:00,
2013-05-15 20:25:00,53.5,34.8,30.09,NE,49,0.0,0.0,49,0.00,CLR,,0.00,WeatherDisplay:10.37,2013-05-16 03:25:00,
2013-05-15 20:30:00,53.2,35.1,30.09,NE,49,0.0,0.0,50,0.00,CLR,,0.00,WeatherDisplay:10.37,2013-05-16 03:30:00,
2013-05-15 20:35:00,53.2,35.0,30.09,NE,49,0.0,0.0,50,0.00,CLR,,0.00,WeatherDisplay:10.37,2013-05-16 03:35:00,
2013-05-15 20:45:00,53.1,33.9,30.09,NE,49,0.0,0.0,48,0.00,CLR,,0.00,WeatherDisplay:10.37,2013-05-16 03:45:00,
2013-05-15 20:50:00,52.9,33.2,30.09,NE,45,0.0,0.0,47,0.00,CLR,,0.00,WeatherDisplay:10.37,2013-05-16 03:50:00,
2013-05-15 21:00:00,52.5,32.3,30.09,NNE,33,0.0,0.0,46,0.00,CLR,,0.00,WeatherDisplay:10.37,2013-05-16 04:00:00,
2013-05-15 21:05:00,52.5,32.3,30.09,NE,34,0.0,0.0,46,0.00,CLR,,0.00,WeatherDisplay:10.37,2013-05-16 04:05:00,
2013-05-15 21:10:00,52.3,31.6,30.09,NE,35,0.0,0.0,45,0.00,CLR,,0.00,WeatherDisplay:10.37,2013-05-16 04:10:00,
2013-05-15 21:15:00,52.3,31.6,30.12,NNE,25,0.0,0.0,45,0.00,CLR,,0.00,WeatherDisplay:10.37,2013-05-16 04:15:00,
2013-05-15 21:20:00,52.8,31.5,30.12,NW,323,0.0,3.0,44,0.00,CLR,,0.00,WeatherDisplay:10.37,2013-05-16 04:20:00,
2013-05-15 21:25:00,52.7,31.4,30.12,WSW,246,0.0,2.0,44,0.00,CLR,,0.00,WeatherDisplay:10.37,2013-05-16 04:25:00,
2013-05-15 21:30:00,52.5,31.2,30.12,WSW,256,0.0,0.0,44,0.00,CLR,,0.00,WeatherDisplay:10.37,2013-05-16 04:30:00,
2013-05-15 21:40:00,53.0,31.1,30.12,West,278,0.0,0.0,43,0.00,CLR,,0.00,WeatherDisplay:10.37,2013-05-16 04:40:00,
2013-05-15 21:45:00,53.2,31.3,30.12,NW,304,0.0,4.0,43,0.00,CLR,,0.00,WeatherDisplay:10.37,2013-05-16 04:45:00,
2013-05-15 21:50:00,53.4,30.9,30.12,NW,310,0.0,0.0,42,0.00,CLR,,0.00,WeatherDisplay:10.37,2013-05-16 04:50:00,
2013-05-15 22:00:00,53.1,30.6,30.12,WSW,256,0.0,0.0,42,0.00,CLR,,0.00,WeatherDisplay:10.37,2013-05-16 05:00:00,
2013-05-15 22:05:00,53.1,30.6,30.12,WSW,254,0.0,0.0,42,0.00,CLR,,0.00,WeatherDisplay:10.37,2013-05-16 05:05:00,
2013-05-15 22:10:00,52.9,30.4,30.12,WSW,250,0.0,0.0,42,0.00,CLR,,0.00,WeatherDisplay:10.37,2013-05-16 05:10:00,
2013-05-15 22:20:00,52.6,30.7,30.12,WNW,283,0.0,0.0,43,0.00,CLR,,0.00,WeatherDisplay:10.37,2013-05-16 05:20:00,
2013-05-15 22:30:00,52.5,30.6,30.09,NW,314,0.0,0.0,43,0.00,CLR,,0.00,WeatherDisplay:10.37,2013-05-16 05:30:00,
2013-05-15 22:35:00,52.5,30.7,30.09,NW,325,0.0,0.0,43,0.00,CLR,,0.00,WeatherDisplay:10.37,2013-05-16 05:35:00,
2013-05-15 22:40:00,52.4,30.0,30.09,NNW,335,2.0,6.0,42,0.00,CLR,,0.00,WeatherDisplay:10.37,2013-05-16 05:40:00,
2013-05-15 22:45:00,52.7,29.6,30.09,NW,325,2.0,4.0,41,0.00,CLR,,0.00,WeatherDisplay:10.37,2013-05-16 05:45:00,
2013-05-15 22:50:00,52.9,29.2,30.09,West,272,0.0,4.0,40,0.00,CLR,,0.00,WeatherDisplay:10.37,2013-05-16 05:50:00,
2013-05-15 23:00:00,52.3,28.7,30.09,SW,232,0.0,0.0,40,0.00,CLR,,0.00,WeatherDisplay:10.37,2013-05-16 06:00:00,
2013-05-15 23:05:00,52.2,27.9,30.09,SW,233,0.0,0.0,39,0.00,CLR,,0.00,WeatherDisplay:10.37,2013-05-16 06:05:00,
2013-05-15 23:10:00,52.0,27.8,30.09,SW,235,0.0,0.0,39,0.00,CLR,,0.00,WeatherDisplay:10.37,2013-05-16 06:10:00,
2013-05-15 23:20:00,52.3,28.1,30.09,West,263,0.0,4.0,39,0.00,CLR,,0.00,WeatherDisplay:10.37,2013-05-16 06:20:00,
2013-05-15 23:30:00,52.0,27.1,30.09,West,260,0.0,0.0,38,0.00,CLR,,0.00,WeatherDisplay:10.37,2013-05-16 06:30:00,
2013-05-15 23:40:00,52.0,27.1,30.09,West,263,0.0,0.0,38,0.00,CLR,,0.00,WeatherDisplay:10.37,2013-05-16 06:40:00,
2013-05-15 23:45:00,51.8,27.0,30.09,West,279,0.0,0.0,38,0.00,CLR,,0.00,WeatherDisplay:10.37,2013-05-16 06:45:00,
2013-05-15 23:50:00,51.6,26.8,30.09,WNW,294,0.0,0.0,38,0.00,CLR,,0.00,WeatherDisplay:10.37,2013-05-16 06:50:00,
2013-05-15 23:55:00,51.3,27.1,30.09,WNW,294,0.0,0.0,39,0.00,CLR,,0.00,WeatherDisplay:10.37,2013-05-16 06:55:00,